Location: Unspecified
(0.0000°N, 0.0000°E)
Time: 21:03:39
(UTC+00:00)

Tiros 1 despin weight - Pass Details

Date: 28 May 2022
Orbit: 591 x 639 km, 48.2° (Epoch: 25 June)

Event Time Altitude Azimuth Distance (km) Brightness Sun altitude
Rises 14:28:40 0° 230° (SW) 2,930 ? 47.3°
Reaches altitude 10° 14:31:05 10° 237° (WSW) 2,016 ? 46.8°
Maximum altitude 14:35:31 44° 309° (NW) 866 ? 45.8°
Drops below altitude 10° 14:39:53 10° 21° (NNE) 1,987 ? 44.9°
Sets 14:42:15 0° 28° (NNE) 2,883 ? 44.4°
